Hourly Weather Dumfries

Today, 8 August, Saturday

Time Temperature Precipitation Wind Pressure Humidity
00:00 +12°C° 0 mm 2 mps 762 mmHg 93%
01:00 +10°C° 0 mm 2 mps 762 mmHg 93%
02:00 +10°C° 0 mm 2 mps 762 mmHg 93%
03:00 +10°C° 0 mm 2 mps 763 mmHg 93%
04:00 +11°C° 0 mm 1 mps 763 mmHg 92%
05:00 +11°C° 0 mm 1 mps 764 mmHg 91%
06:00 +12°C° 0 mm 1 mps 764 mmHg 91%
07:00 +14°C° 0 mm 1 mps 764 mmHg 84%
08:00 +14°C° 0 mm 0 mps 765 mmHg 78%
09:00 +16°C° 0 mm 0 mps 765 mmHg 71%
10:00 +18°C° 0 mm 0 mps 765 mmHg 66%
11:00 +19°C° 0 mm 0 mps 765 mmHg 61%
12:00 +22°C° 0 mm 1 mps 765 mmHg 57%
13:00 +22°C° 0 mm 1 mps 765 mmHg 56%
14:00 +22°C° 0 mm 1 mps 765 mmHg 56%
15:00 +21°C° 0 mm 2 mps 766 mmHg 56%
16:00 +20°C° 0 mm 2 mps 765 mmHg 62%
17:00 +19°C° 0 mm 2 mps 765 mmHg 67%
18:00 +18°C° 0 mm 3 mps 765 mmHg 73%
19:00 +17°C° 0 mm 2 mps 765 mmHg 78%
20:00 +15°C° 0 mm 2 mps 765 mmHg 83%
21:00 +13°C° 0 mm 2 mps 766 mmHg 88%
22:00 +12°C° 0 mm 2 mps 766 mmHg 89%
23:00 +12°C° 0 mm 2 mps 765 mmHg 90%

Tomorrow, 9 August, Sunday

Time Temperature Precipitation Wind Pressure Humidity
00:00 +11°C° 0 mm 1 mps 765 mmHg 90%
01:00 +11°C° 0 mm 1 mps 765 mmHg 91%
02:00 +11°C° 0 mm 1 mps 765 mmHg 91%
03:00 +10°C° 0 mm 1 mps 765 mmHg 92%
04:00 +11°C° 0 mm 1 mps 765 mmHg 91%
05:00 +10°C° 0 mm 2 mps 765 mmHg 90%
06:00 +10°C° 0 mm 2 mps 765 mmHg 89%
07:00 +13°C° 0 mm 2 mps 764 mmHg 84%
08:00 +13°C° 0 mm 3 mps 764 mmHg 79%
09:00 +16°C° 0 mm 3 mps 764 mmHg 74%
10:00 +17°C° 0 mm 3 mps 764 mmHg 72%
11:00 +18°C° 0 mm 4 mps 764 mmHg 70%
12:00 +18°C° 0 mm 4 mps 764 mmHg 68%
13:00 +18°C° 0 mm 4 mps 764 mmHg 70%
14:00 +18°C° 0 mm 4 mps 763 mmHg 72%
15:00 +17°C° 0 mm 4 mps 763 mmHg 73%
16:00 +17°C° 0 mm 4 mps 763 mmHg 75%
17:00 +15°C° 0 mm 4 mps 763 mmHg 77%
18:00 +16°C° 0 mm 3 mps 762 mmHg 78%
19:00 +14°C° 0 mm 3 mps 762 mmHg 82%
20:00 +13°C° 0 mm 3 mps 762 mmHg 85%
21:00 +12°C° 0 mm 3 mps 762 mmHg 88%
22:00 +12°C° 0 mm 3 mps 762 mmHg 89%
23:00 +12°C° 0 mm 3 mps 762 mmHg 89%

Day after tomorrow, 10 August, Monday

Time Temperature Precipitation Wind Pressure Humidity
00:00 +12°C° 0 mm 3 mps 762 mmHg 89%
01:00 +13°C° 0 mm 2 mps 761 mmHg 89%
02:00 +13°C° 0 mm 2 mps 761 mmHg 88%
03:00 +13°C° 0 mm 2 mps 761 mmHg 88%
04:00 +12°C° 0 mm 3 mps 761 mmHg 88%
05:00 +12°C° 0 mm 3 mps 760 mmHg 87%
06:00 +12°C° 0 mm 3 mps 760 mmHg 87%
07:00 +13°C° 0.1 mm 3 mps 760 mmHg 86%
08:00 +14°C° 0.1 mm 3 mps 760 mmHg 85%
09:00 +16°C° 0.1 mm 3 mps 760 mmHg 83%
10:00 +16°C° 0.3 mm 3 mps 760 mmHg 84%
11:00 +16°C° 0.3 mm 3 mps 760 mmHg 85%
12:00 +17°C° 0.3 mm 3 mps 760 mmHg 86%
13:00 +17°C° 0.3 mm 3 mps 759 mmHg 85%
14:00 +17°C° 0.3 mm 3 mps 759 mmHg 84%
15:00 +18°C° 0.3 mm 3 mps 759 mmHg 82%
16:00 +17°C° 0.8 mm 2 mps 759 mmHg 85%
17:00 +17°C° 0.8 mm 2 mps 759 mmHg 87%
18:00 +16°C° 0.8 mm 2 mps 759 mmHg 90%
19:00 +16°C° 0.1 mm 1 mps 759 mmHg 91%
20:00 +16°C° 0.1 mm 1 mps 759 mmHg 92%
21:00 +14°C° 0.1 mm 0 mps 759 mmHg 92%
22:00 +14°C° 0 mm 0 mps 759 mmHg 92%
23:00 +14°C° 0 mm 0 mps 759 mmHg 92%

11 August, Tuesday

Time Temperature Precipitation Wind Pressure Humidity
00:00 +14°C° 0 mm 0 mps 759 mmHg 91%
01:00 +14°C° 0 mm 0 mps 759 mmHg 92%
02:00 +14°C° 0 mm 0 mps 759 mmHg 92%
03:00 +14°C° 0 mm 0 mps 759 mmHg 92%
04:00 +14°C° 0 mm 0 mps 759 mmHg 92%
05:00 +15°C° 0 mm 1 mps 759 mmHg 92%
06:00 +16°C° 0 mm 1 mps 759 mmHg 92%
07:00 +18°C° 0 mm 1 mps 759 mmHg 89%
08:00 +19°C° 0 mm 1 mps 759 mmHg 87%
09:00 +20°C° 0 mm 1 mps 760 mmHg 84%
10:00 +21°C° 0 mm 1 mps 760 mmHg 81%
11:00 +22°C° 0 mm 1 mps 760 mmHg 78%
12:00 +23°C° 0 mm 1 mps 760 mmHg 75%
13:00 +23°C° 0.1 mm 1 mps 760 mmHg 75%
14:00 +23°C° 0.1 mm 1 mps 760 mmHg 75%
15:00 +23°C° 0.1 mm 1 mps 759 mmHg 75%
16:00 +23°C° 0.1 mm 1 mps 759 mmHg 78%
17:00 +22°C° 0.1 mm 1 mps 759 mmHg 80%
18:00 +22°C° 0.1 mm 1 mps 759 mmHg 83%
19:00 +20°C° 0 mm 1 mps 759 mmHg 86%
20:00 +19°C° 0 mm 1 mps 759 mmHg 89%
21:00 +16°C° 0 mm 0 mps 759 mmHg 92%
22:00 +15°C° 0 mm 0 mps 759 mmHg 93%
23:00 +15°C° 0 mm 0 mps 759 mmHg 94%

12 August, Wednesday

Time Temperature Precipitation Wind Pressure Humidity
00:00 +14°C° 0 mm 0 mps 759 mmHg 95%
01:00 +14°C° 0 mm 0 mps 759 mmHg 95%
02:00 +13°C° 0 mm 0 mps 759 mmHg 96%
03:00 +13°C° 0 mm 0 mps 759 mmHg 96%
04:00 +14°C° 0 mm 0 mps 758 mmHg 96%
05:00 +14°C° 0 mm 0 mps 758 mmHg 96%
06:00 +15°C° 0 mm 1 mps 758 mmHg 96%
07:00 +16°C° 0 mm 1 mps 758 mmHg 93%
08:00 +18°C° 0 mm 1 mps 758 mmHg 90%
09:00 +20°C° 0 mm 1 mps 758 mmHg 87%
10:00 +20°C° 0 mm 1 mps 758 mmHg 84%
11:00 +21°C° 0 mm 1 mps 758 mmHg 82%
12:00 +22°C° 0 mm 1 mps 758 mmHg 79%
13:00 +22°C° 0 mm 1 mps 758 mmHg 78%
14:00 +22°C° 0 mm 1 mps 757 mmHg 77%
15:00 +23°C° 0 mm 1 mps 757 mmHg 77%
16:00 +21°C° 0.1 mm 2 mps 757 mmHg 80%
17:00 +21°C° 0.1 mm 2 mps 757 mmHg 83%
18:00 +20°C° 0.1 mm 2 mps 757 mmHg 86%
19:00 +20°C° 0 mm 1 mps 757 mmHg 89%
20:00 +18°C° 0 mm 1 mps 757 mmHg 92%
21:00 +16°C° 0 mm 1 mps 757 mmHg 95%
22:00 +16°C° 0 mm 1 mps 757 mmHg 95%
23:00 +16°C° 0 mm 1 mps 756 mmHg 95%

13 August, Thursday

Time Temperature Precipitation Wind Pressure Humidity
00:00 +16°C° 0 mm 1 mps 756 mmHg 95%
01:00 +16°C° 0 mm 1 mps 756 mmHg 95%
02:00 +15°C° 0 mm 0 mps 756 mmHg 95%
03:00 +15°C° 0 mm 0 mps 755 mmHg 95%
04:00 +15°C° 0 mm 0 mps 755 mmHg 95%
05:00 +15°C° 0 mm 0 mps 755 mmHg 95%
06:00 +16°C° 0 mm 1 mps 755 mmHg 94%
07:00 +18°C° 0.1 mm 1 mps 755 mmHg 91%
08:00 +19°C° 0.1 mm 1 mps 755 mmHg 88%
09:00 +20°C° 0.1 mm 1 mps 755 mmHg 85%
10:00 +20°C° 0.1 mm 1 mps 755 mmHg 82%
11:00 +21°C° 0.1 mm 1 mps 755 mmHg 79%
12:00 +20°C° 0.1 mm 2 mps 755 mmHg 76%
13:00 +20°C° 0.1 mm 2 mps 755 mmHg 75%
14:00 +20°C° 0.1 mm 2 mps 755 mmHg 75%
15:00 +21°C° 0.1 mm 2 mps 755 mmHg 74%
16:00 +20°C° 0.1 mm 2 mps 755 mmHg 76%
17:00 +21°C° 0.1 mm 1 mps 755 mmHg 78%
18:00 +21°C° 0.1 mm 1 mps 755 mmHg 80%
19:00 +19°C° 0.1 mm 1 mps 755 mmHg 83%
20:00 +18°C° 0.1 mm 1 mps 755 mmHg 86%
21:00 +16°C° 0.1 mm 1 mps 756 mmHg 90%
22:00 +15°C° 0 mm 1 mps 756 mmHg 90%
23:00 +15°C° 0 mm 1 mps 756 mmHg 91%
Show more